Theta_e
290 290 291 291 292 293 296 297 296 295 296 298 299 299 298 298 297 296 296 296 296 297 297 297 298 297 296 295 296 296 296 296 296 295 295 296 295 293 292 291 291 291 292
288 288 288 289 289 289 289 291 293 295 294 294 295 297 298 297 297 297 296 295 296 295 296 296 296 296 296 295 295 295 296 296 295 295 295 295 295 294 292 291 290 291 291
287 287 287 287 287 287 288 288 288 288 290 291 291 293 296 297 296 295 296 296 295 294 295 295 296 296 296 295 294 294 295 295 294 294 294 294 294 293 291 290 290 290 291
286 286 286 286 286 286 286 286 286 287 287 287 288 289 289 294 296 296 294 295 295 294 294 294 294 295 297 296 294 294 294 294 294 293 293 293 293 292 292 291 289 289 290
286 286 286 286 286 286 286 286 286 286 286 286 286 286 287 287 289 296 296 295 294 294 295 296 295 294 293 295 296 294 293 293 294 293 292 292 292 292 292 291 289 289 289
286 286 286 285 285 285 286 286 286 286 286 285 286 286 286 286 286 286 289 296 296 293 293 295 295 295 294 292 294 295 296 294 293 293 293 292 293 293 292 292 289 287 287
286 286 285 285 285 285 285 285 286 285 285 285 285 285 286 286 285 285 285 286 294 296 295 293 293 293 294 294 292 290 291 294 293 293 293 294 293 293 293 291 289 288 288
285 284 284 283 284 284 284 284 284 284 285 285 285 285 285 285 285 285 285 285 285 290 295 293 290 290 292 292 292 291 290 290 291 291 291 292 292 293 293 292 291 288 287
281 281 281 281 280 280 280 280 281 281 282 283 284 284 284 284 284 284 284 284 285 285 288 294 292 289 289 288 288 289 290 289 289 289 290 290 291 290 290 290 287 286 286
279 278 278 278 277 277 276 276 276 276 278 279 281 282 283 283 284 283 283 284 284 285 285 288 293 291 288 288 287 288 287 289 287 287 286 287 288 289 289 289 287 287 286
278 277 276 275 274 274 274 273 272 272 272 274 275 279 281 282 283 283 283 283 284 284 285 285 288 292 289 287 286 286 287 287 288 287 286 286 286 287 288 288 287 285 286
279 279 277 275 272 270 269 269 268 267 268 269 270 272 275 279 282 282 281 283 283 283 284 285 286 290 289 287 286 285 285 285 286 286 286 284 285 286 286 285 284 284 284
278 277 274 272 269 267 266 265 265 265 265 266 267 269 270 272 275 278 281 283 284 284 284 284 285 289 288 287 286 285 285 285 284 284 284 284 284 284 283 282 282 282 283
274 272 269 267 266 265 264 263 264 264 264 265 265 267 269 270 272 275 279 282 282 283 283 284 286 287 287 287 286 285 284 284 284 283 283 282 282 281 281 281 281 282 283
270 268 266 264 263 263 263 263 264 264 264 265 265 266 267 267 269 272 276 280 282 282 282 283 285 286 286 285 284 285 284 284 283 282 282 281 281 281 281 281 281 282 281
268 266 264 264 264 263 263 263 264 265 266 267 267 268 268 269 270 272 274 276 278 281 282 282 284 285 285 285 284 284 283 284 283 282 282 280 279 279 279 280 280 281 282
265 264 263 263 263 262 262 263 263 264 265 266 266 267 268 269 270 272 273 275 277 280 282 282 283 283 283 283 283 283 283 283 282 281 281 280 278 279 280 280 281 281 279
265 265 264 264 263 263 263 263 264 264 264 265 265 266 266 268 270 272 274 277 278 280 283 283 283 283 283 282 282 283 282 282 280 280 280 280 279 280 280 279 279 279 277
266 266 265 264 264 264 264 264 264 265 265 265 266 267 268 269 271 274 278 279 282 282 283 283 282 282 282 282 282 282 282 281 280 279 279 279 278 278 277 277 277 276 275
268 268 266 265 264 265 265 265 266 266 267 267 268 270 272 273 275 276 277 280 281 282 283 283 283 282 282 281 282 282 281 279 278 277 278 277 277 277 277 277 275 275 275
269 267 266 266 266 266 266 266 268 269 269 269 270 271 271 274 274 275 277 280 282 283 283 282 282 281 281 281 281 281 280 278 277 277 278 277 277 276 276 276 275 275 275
268 268 267 266 265 266 267 267 268 268 269 269 270 271 272 273 275 276 278 282 283 283 282 282 282 281 280 281 281 280 279 277 277 277 277 276 276 276 275 274 274 273 272
270 269 268 268 267 267 267 268 268 269 269 269 269 270 272 273 274 276 278 279 280 281 280 280 280 280 279 280 279 279 278 277 277 277 277 276 275 275 274 274 273 273 272
270 269 269 268 268 268 267 267 268 269 269 269 269 269 270 271 272 274 275 277 277 278 278 278 277 278 278 278 277 276 276 276 276 276 276 276 275 274 273 273 272 271 270
270 270 269 268 268 268 268 268 267 268 268 268 269 269 270 271 273 273 274 275 275 275 275 275 275 276 276 276 276 274 274 274 275 274 274 274 274 273 273 272 271 270 269
269 269 269 269 269 269 268 269 268 268 268 268 269 269 270 270 271 272 272 273 273 274 274 274 274 274 274 274 273 273 273 273 273 273 273 273 273 272 270 270 269 269 269
Wind_Speed
21 21 21 22 22 21 21 21 22 23 24 22 18 17 18 22 24 26 30 34 44 51 54 55 56 55 57 55 50 47 44 41 37 32 30 29 31 32 33 33 29 24 20
22 23 23 22 22 23 24 24 24 25 24 23 23 22 19 20 22 27 31 32 35 43 49 54 55 56 59 57 55 52 49 44 42 39 35 33 32 32 33 35 31 28 24
25 27 27 28 28 26 27 27 27 27 26 28 28 24 22 23 22 25 27 31 35 38 41 48 55 56 59 58 58 57 53 49 46 46 42 37 35 34 35 37 36 32 29
25 27 29 30 32 34 33 30 31 32 33 30 29 31 29 24 24 27 26 29 33 37 39 43 49 55 59 59 61 61 58 55 51 49 45 42 38 37 38 39 39 37 32
23 25 28 32 34 37 39 40 40 36 35 36 36 34 32 31 30 29 26 28 32 35 38 43 46 51 56 59 60 62 62 60 58 55 52 47 44 41 43 41 40 37 34
26 29 30 32 34 37 42 44 43 44 44 43 41 41 40 37 35 34 33 32 32 35 40 42 45 49 52 55 62 62 64 64 65 63 60 59 54 48 42 40 38 38 35
35 37 38 37 39 40 41 42 44 47 50 51 50 50 49 47 43 39 37 34 37 38 39 42 45 49 50 54 55 59 65 65 65 65 66 66 61 54 47 43 41 39 39
40 40 41 44 47 49 49 49 49 48 49 53 57 58 57 57 53 47 41 41 40 41 43 43 46 49 49 51 53 54 62 65 64 66 67 63 63 57 50 45 42 40 38
39 43 47 49 52 56 58 61 61 61 60 59 58 60 64 64 59 57 51 45 46 46 44 44 45 48 48 47 51 51 56 63 64 63 66 65 62 55 46 44 45 42 40
43 44 48 52 53 56 55 56 58 58 63 63 64 62 63 67 66 61 57 52 49 49 48 48 46 47 48 45 52 50 56 56 59 56 59 59 60 58 52 47 45 47 43
54 54 54 51 50 55 59 56 53 55 57 64 65 67 65 64 66 65 59 49 54 50 50 50 49 47 45 47 49 54 58 49 50 51 57 58 56 55 54 54 51 46 44
57 58 60 60 59 56 54 58 52 48 49 53 52 58 63 64 62 62 51 48 54 49 50 49 48 45 43 42 48 55 47 43 46 49 51 54 59 59 56 54 51 46 43
55 58 59 60 58 52 47 46 44 41 40 43 43 46 50 47 48 45 40 41 43 42 48 49 44 42 41 39 41 49 46 45 51 52 53 53 54 57 55 52 47 44 39
53 55 56 54 52 47 42 39 39 39 39 40 40 41 42 42 41 37 32 32 37 41 44 41 41 39 40 42 40 42 47 52 53 52 48 44 44 49 55 55 49 44 37
50 52 51 46 42 42 40 39 39 40 40 43 44 45 47 50 45 37 33 29 30 35 31 31 36 38 41 42 40 39 50 50 51 46 40 44 50 53 54 52 48 42 38
47 46 44 44 45 43 42 43 37 36 37 39 41 44 49 51 48 44 43 44 39 30 30 29 35 38 42 45 44 44 49 49 49 46 44 48 50 49 52 49 44 40 36
42 43 43 43 43 43 41 41 44 45 39 38 38 38 40 43 42 40 40 40 39 37 38 36 34 37 41 42 40 43 43 44 46 48 50 51 50 48 48 46 45 42 38
39 39 39 39 39 40 41 42 42 43 45 48 41 34 33 33 33 35 35 33 38 40 38 37 32 37 39 38 38 39 40 45 46 50 49 50 49 47 48 49 46 43 41
38 38 37 37 38 40 42 42 41 40 41 42 43 37 29 25 27 29 29 27 20 41 39 35 31 35 36 34 33 39 42 47 49 49 48 46 46 48 48 45 42 40 37
38 36 34 36 37 37 37 37 38 38 38 38 35 32 30 28 27 26 19 16 27 24 30 25 26 32 30 34 35 39 43 43 45 46 45 44 46 45 44 42 39 35 30
37 36 32 32 33 34 35 34 34 34 34 32 32 31 29 30 26 23 22 17 17 26 23 18 24 29 32 31 33 37 41 44 45 44 44 44 44 44 41 37 33 28 25
33 32 31 30 30 31 29 28 26 25 25 26 26 23 20 16 14 14 13 4 8 13 13 12 19 26 31 31 31 36 38 41 43 45 44 42 39 37 35 32 29 26 24
29 30 29 27 27 27 27 26 25 24 24 24 23 22 19 16 12 8 3 1 5 5 5 10 21 25 28 29 30 32 34 35 38 42 38 35 34 33 30 29 27 23 19
28 27 27 26 25 25 25 26 26 25 23 23 21 20 18 15 11 8 5 2 2 5 8 14 18 21 21 21 20 21 22 25 29 32 32 33 32 30 28 25 20 18 16
26 27 27 26 25 24 25 25 27 27 24 22 21 19 18 15 13 10 8 5 3 2 4 5 8 11 11 11 12 14 16 18 23 28 28 27 27 26 23 19 18 17 13
21 23 25 25 25 24 24 25 25 27 27 26 23 21 20 18 17 15 13 12 11 11 11 10 10 10 12 14 16 18 21 23 25 25 25 24 22 20 18 18 16 13 11
Wind_Direction
9 6 2 2 1 356 353 350 350 350 350 349 334 314 301 289 279 269 267 264 258 253 250 248 247 246 244 239 237 238 237 237 238 230 232 233 231 230 229 223 228 228 230
356 355 354 352 350 349 350 347 341 337 340 342 339 336 327 310 294 279 276 269 263 260 255 252 249 246 245 243 239 238 238 236 236 237 234 229 229 229 226 223 228 228 230
345 344 343 342 342 341 339 336 335 334 332 331 332 333 327 324 312 295 284 275 273 265 261 259 255 250 250 246 242 239 237 237 237 239 237 233 229 224 224 223 227 229 229
335 334 333 331 332 332 331 329 325 325 327 326 323 324 325 318 311 309 297 286 277 270 266 262 259 256 252 249 246 242 239 237 237 238 237 236 232 227 225 226 229 230 230
321 320 319 318 318 317 318 320 321 321 318 316 316 315 315 316 315 299 300 298 286 277 270 265 262 260 256 253 250 246 242 237 235 234 237 234 231 228 228 228 230 232 233
318 314 309 304 301 303 306 309 309 310 312 311 309 310 310 309 309 312 306 293 289 281 276 269 263 262 259 257 255 251 248 242 237 235 235 239 236 235 234 232 227 225 230
315 313 311 307 303 301 299 298 300 303 304 305 305 305 304 303 304 303 304 301 289 281 277 271 267 262 259 257 255 254 251 248 244 245 240 240 239 238 237 234 230 230 233
315 313 312 311 308 306 303 300 297 294 293 294 296 297 297 296 297 298 299 297 294 285 279 271 266 264 259 257 254 251 249 247 243 242 242 244 245 244 240 241 239 229 226
311 311 311 308 305 304 301 300 297 295 291 288 286 286 289 290 291 292 293 292 288 287 282 277 268 264 260 254 252 248 250 248 244 241 243 243 243 244 239 233 227 221 219
311 307 305 304 302 299 296 294 294 292 292 291 287 282 280 281 283 283 285 285 283 281 282 281 276 266 258 247 246 246 242 245 240 234 234 235 238 238 236 234 233 225 222
310 308 305 302 297 295 295 292 289 287 288 289 288 285 282 277 275 278 277 273 277 277 277 278 276 275 262 245 239 242 245 240 245 243 240 234 231 232 229 228 228 226 225
307 305 304 304 303 301 299 298 294 289 287 286 286 286 284 279 276 275 272 267 271 271 269 272 273 273 260 250 234 239 234 228 232 232 233 228 230 226 224 224 222 219 220
307 306 307 308 308 308 303 299 294 291 285 283 281 281 281 281 278 274 268 262 261 259 264 267 268 266 255 243 239 234 226 217 220 219 221 222 228 227 222 220 215 215 214
311 311 312 311 310 308 302 296 292 289 287 285 283 281 282 282 278 276 272 267 259 260 264 259 252 250 249 246 238 231 224 218 217 215 217 214 213 210 215 217 211 209 208
315 314 312 309 306 302 298 294 292 288 286 285 283 281 280 279 278 274 271 267 266 272 267 260 254 241 236 227 226 232 220 219 215 209 205 203 204 209 213 213 210 208 211
314 316 315 314 312 308 303 301 298 292 291 287 284 280 279 276 277 274 272 271 270 267 266 257 251 234 229 228 224 222 220 219 211 206 201 198 197 196 206 206 207 210 209
321 320 315 313 310 304 302 299 298 303 300 294 290 286 281 280 277 273 270 264 262 259 254 255 249 231 224 221 216 218 218 215 207 203 204 201 202 209 211 205 207 209 202
324 322 319 317 311 304 302 299 298 297 298 302 307 298 291 285 278 273 268 267 254 246 242 246 248 230 228 222 215 217 209 211 203 204 207 208 212 215 209 206 205 202 200
329 328 325 319 317 313 310 306 302 299 298 300 307 315 317 305 289 284 284 275 240 237 232 244 248 230 225 220 214 210 211 211 210 209 208 213 215 212 205 202 200 198 198
333 328 330 325 319 317 317 311 307 304 305 309 317 326 333 334 326 310 300 276 253 252 230 247 248 226 217 208 216 215 210 205 200 205 211 212 210 207 203 199 195 195 196
334 333 332 329 329 328 323 318 320 315 315 325 328 334 318 313 309 305 307 303 246 226 234 252 225 214 212 217 222 217 212 207 206 210 211 210 205 199 201 198 196 193 195
335 336 336 335 335 332 334 336 332 331 329 327 325 319 322 319 319 317 319 290 210 222 239 253 232 223 218 221 222 216 211 210 209 206 204 201 198 195 191 188 189 189 188
346 345 344 345 343 343 346 348 347 345 344 343 342 342 344 341 336 337 331 130 182 219 231 220 221 217 214 216 216 219 217 213 212 207 200 194 191 186 186 187 186 188 192
357 354 354 354 354 355 355 357 358 358 356 357 358 2 5 12 19 22 18 43 173 191 205 209 209 206 208 208 211 213 213 215 211 204 197 190 183 181 183 184 182 185 195
2 3 2 1 1 3 4 8 10 12 13 14 16 19 23 27 28 32 38 47 71 124 149 166 184 189 192 198 202 197 188 188 186 182 181 181 178 176 177 179 186 193 200
6 9 11 13 13 12 13 18 24 27 30 32 34 35 37 41 45 50 57 69 85 98 109 121 130 141 147 144 142 143 146 154 160 164 167 169 169 169 175 184 190 199 213